CW7986 Weather Reports


Display with metric or nautical units.
time (UTC)temp
F
wind
direction
speed
MPH
gust
MPH
rain 1hr
in
rain 24hr
in
rain mn
in
humidity
%
barometer
mb
20260508142002 83 292 4.0 7.0 0.00 0.00 0.00 78 1015.0
20260508141502 82 281 4.0 9.0 0.00 0.00 0.00 78 1015.0
20260508141024 81 278 4.0 9.0 0.00 0.00 0.00 79 1015.0
20260508140502 81 291 4.0 9.0 0.00 0.00 0.00 80 1015.1
20260508140002 81 290 4.0 9.0 0.00 0.00 0.00 80 1015.2
20260508135502 81 288 3.0 7.0 0.00 0.00 0.00 81 1015.1
20260508135006 81 288 3.0 7.0 0.00 0.00 0.00 81 1015.2
20260508134502 80 291 3.0 6.0 0.00 0.00 0.00 82 1015.2
20260508134003 81 293 3.0 6.0 0.00 0.00 0.00 82 1015.2
20260508133502 81 295 4.0 6.0 0.00 0.00 0.00 82 1015.2
20260508133002 80 295 4.0 6.0 0.00 0.00 0.00 83 1015.0
20260508132502 80 291 4.0 6.0 0.00 0.00 0.00 84 1014.9
20260508132023 80 288 4.0 7.0 0.00 0.00 0.00 85 1014.9
20260508131502 79 288 3.0 7.0 0.00 0.00 0.00 85 1014.9
20260508131002 79 289 3.0 5.0 0.00 0.00 0.00 85 1014.8
20260508130502 79 294 3.0 5.0 0.00 0.00 0.00 86 1014.8
20260508130002 79 294 2.0 5.0 0.00 0.00 0.00 86 1014.8
20260508125502 78 287 3.0 6.0 0.00 0.00 0.00 86 1014.8
20260508125003 78 292 2.0 6.0 0.00 0.00 0.00 87 1014.7
20260508124502 78 306 1.0 4.0 0.00 0.00 0.00 89 1014.8
20260508124002 78 298 0.0 1.0 0.00 0.00 0.00 89 1014.7
20260508123523 78 298 0.0 1.0 0.00 0.00 0.00 89 1014.7
20260508123023 77 298 0.0 1.0 0.00 0.00 0.00 89 1014.7
20260508122502 77 0 0.0 0.0 0.00 0.00 0.00 90 1014.6
20260508122002 76 0 0.0 0.0 0.00 0.00 0.00 90 1014.6
20260508121502 76 0 0.0 0.0 0.00 0.00 0.00 90 1014.5
20260508121002 76 0 0.0 0.0 0.00 0.00 0.00 90 1014.4
20260508120502 76 0 0.0 0.0 0.00 0.00 0.00 90 1014.3
20260508120002 75 0 0.0 0.0 0.00 0.00 0.00 90 1014.3
20260508115502 74 0 0.0 0.0 0.00 0.00 0.00 90 1014.3
20260508115023 74 0 0.0 0.0 0.00 0.00 0.00 89 1014.2
20260508114502 73 0 0.0 0.0 0.00 0.00 0.00 89 1014.2
20260508114002 72 0 0.0 0.0 0.00 0.00 0.00 89 1014.2
20260508113502 72 0 0.0 0.0 0.00 0.00 0.00 89 1014.0
20260508113002 72 0 0.0 0.0 0.00 0.00 0.00 89 1013.9
20260508112502 71 0 0.0 0.0 0.00 0.00 0.00 89 1013.8
20260508112023 71 0 0.0 0.0 0.00 0.00 0.00 89 1013.8
20260508111502 71 0 0.0 0.0 0.00 0.00 0.00 89 1013.7
20260508111002 71 0 0.0 0.0 0.00 0.00 0.00 88 1013.7
20260508110502 71 0 0.0 0.0 0.00 0.00 0.00 88 1013.6
20260508110003 71 0 0.0 0.0 0.00 0.00 0.00 88 1013.6
20260508105503 71 0 0.0 0.0 0.00 0.00 0.00 88 1013.4
20260508105023 71 0 0.0 0.0 0.00 0.00 0.00 88 1013.4
20260508104503 71 0 0.0 0.0 0.00 0.00 0.00 88 1013.3
20260508104023 71 0 0.0 0.0 0.00 0.00 0.00 88 1013.3
20260508103502 71 0 0.0 0.0 0.00 0.00 0.00 88 1013.2
20260508103025 71 298 0.0 1.0 0.00 0.00 0.00 88 1013.2
20260508102503 71 298 0.0 1.0 0.00 0.00 0.00 88 1013.1
20260508102002 72 0 0.0 0.0 0.00 0.00 0.00 88 1012.9
20260508101502 72 0 0.0 0.0 0.00 0.00 0.00 88 1012.9
20260508101002 72 0 0.0 0.0 0.00 0.00 0.00 88 1012.8
20260508100502 72 0 0.0 0.0 0.00 0.00 0.00 88 1012.8
20260508100002 72 0 0.0 0.0 0.00 0.00 0.00 88 1012.7
20260508095502 72 0 0.0 0.0 0.00 0.00 0.00 88 1012.7
20260508095024 72 0 0.0 0.0 0.00 0.00 0.00 88 1012.7
20260508094523 72 0 0.0 0.0 0.00 0.00 0.00 88 1012.7
20260508094023 72 0 0.0 0.0 0.00 0.00 0.00 88 1012.7
20260508093502 72 0 0.0 0.0 0.00 0.00 0.00 88 1012.7
20260508093003 72 0 0.0 0.0 0.00 0.00 0.00 88 1012.7
20260508092502 72 0 0.0 0.0 0.00 0.00 0.00 88 1012.7
20260508092002 72 0 0.0 0.0 0.00 0.00 0.00 88 1012.7
20260508091502 73 0 0.0 0.0 0.00 0.00 0.00 88 1012.6
20260508091002 73 298 0.0 1.0 0.00 0.00 0.00 88 1012.6
20260508090502 73 298 0.0 1.0 0.00 0.00 0.00 88 1012.7
20260508090002 73 0 0.0 0.0 0.00 0.00 0.00 88 1012.6
20260508085502 73 0 0.0 0.0 0.00 0.00 0.00 88 1012.5
20260508085002 73 0 0.0 0.0 0.00 0.00 0.00 88 1012.5
20260508084523 74 0 0.0 0.0 0.00 0.00 0.00 88 1012.5
20260508084002 74 0 0.0 0.0 0.00 0.00 0.00 88 1012.4
20260508083502 74 0 0.0 0.0 0.00 0.00 0.00 88 1012.4
20260508083024 74 0 0.0 0.0 0.00 0.00 0.00 88 1012.5
20260508082502 74 0 0.0 0.0 0.00 0.00 0.00 88 1012.5
20260508082002 74 0 0.0 0.0 0.00 0.00 0.00 88 1012.5
20260508081502 74 298 0.0 1.0 0.00 0.00 0.00 88 1012.5
20260508081002 75 298 0.0 1.0 0.00 0.00 0.00 88 1012.5
20260508080503 75 298 0.0 1.0 0.00 0.00 0.00 88 1012.5
20260508080003 75 298 0.0 1.0 0.00 0.00 0.00 89 1012.6
20260508075502 75 0 0.0 0.0 0.00 0.00 0.00 88 1012.6
20260508075003 75 298 0.0 1.0 0.00 0.00 0.00 88 1012.6
20260508074502 75 298 1.0 2.0 0.00 0.00 0.00 89 1012.7
20260508074002 75 298 1.0 2.0 0.00 0.00 0.00 88 1012.7
20260508073502 75 298 1.0 2.0 0.00 0.00 0.00 88 1012.7
20260508073002 75 298 1.0 4.0 0.00 0.00 0.00 88 1012.7
20260508072502 75 298 1.0 4.0 0.00 0.00 0.00 88 1012.7
20260508072002 76 298 0.0 4.0 0.00 0.00 0.00 89 1012.7
20260508071502 76 298 0.0 1.0 0.00 0.00 0.00 89 1012.7
20260508071002 76 298 0.0 2.0 0.00 0.00 0.00 89 1012.7
20260508070502 75 291 1.0 3.0 0.00 0.00 0.00 88 1012.7
20260508070023 75 290 1.0 3.0 0.00 0.00 0.00 88 1012.7
20260508065502 76 293 1.0 3.0 0.00 0.00 0.00 89 1012.7
20260508065002 76 300 0.0 2.0 0.00 0.00 0.00 89 1012.7
20260508064502 76 319 1.0 4.0 0.00 0.00 0.00 89 1012.8
20260508064002 76 319 1.0 4.0 0.00 0.00 0.00 89 1012.9
20260508063502 76 305 1.0 4.0 0.00 0.00 0.00 89 1012.9
20260508063002 76 286 1.0 3.0 0.00 0.00 0.00 89 1012.9
20260508062503 76 287 1.0 3.0 0.00 0.00 0.00 89 1013.0
20260508062023 76 295 1.0 3.0 0.00 0.00 0.00 89 1013.1
20260508061502 76 308 1.0 3.0 0.00 0.00 0.00 89 1013.1
20260508061002 76 306 2.0 3.0 0.00 0.00 0.00 89 1013.1
20260508060523 76 308 1.0 3.0 0.00 0.00 0.00 89 1013.1
20260508060023 76 301 1.0 3.0 0.00 0.00 0.00 89 1013.2
20260508055502 76 279 1.0 3.0 0.00 0.00 0.00 88 1013.2
20260508055002 76 290 2.0 3.0 0.00 0.00 0.00 89 1013.2
20260508054503 76 286 2.0 4.0 0.00 0.00 0.00 89 1013.2
20260508054002 76 272 2.0 4.0 0.00 0.00 0.00 89 1013.3
20260508053523 76 273 3.0 4.0 0.00 0.00 0.00 89 1013.3
20260508053002 76 272 2.0 4.0 0.00 0.00 0.00 89 1013.3
20260508052523 76 267 2.0 3.0 0.00 0.00 0.00 89 1013.3
20260508052002 76 269 2.0 3.0 0.00 0.00 0.00 89 1013.3
20260508051503 76 274 2.0 4.0 0.00 0.00 0.00 88 1013.3
20260508051003 76 277 2.0 4.0 0.00 0.00 0.00 88 1013.4
20260508050502 76 275 2.0 4.0 0.00 0.00 0.00 88 1013.5
20260508050003 76 271 2.0 4.0 0.00 0.00 0.00 88 1013.5
20260508045502 76 275 2.0 4.0 0.00 0.00 0.00 88 1013.5
20260508045023 76 278 2.0 4.0 0.00 0.00 0.00 88 1013.4
20260508044502 77 277 2.0 4.0 0.00 0.00 0.00 88 1013.4
20260508044002 77 275 3.0 5.0 0.00 0.00 0.00 88 1013.4
20260508043502 77 274 3.0 5.0 0.00 0.00 0.00 88 1013.5
20260508043002 77 272 2.0 4.0 0.00 0.00 0.00 88 1013.6
20260508042524 77 269 3.0 4.0 0.00 0.00 0.00 88 1013.6
20260508042003 77 266 2.0 5.0 0.00 0.00 0.00 88 1013.7
20260508041524 77 266 3.0 5.0 0.00 0.00 0.00 88 1013.6
20260508041002 77 271 2.0 4.0 0.00 0.00 0.00 88 1013.7
20260508040502 77 275 2.0 4.0 0.00 0.00 0.00 88 1013.7
20260508040003 77 272 3.0 4.0 0.00 0.00 0.00 88 1013.8
20260508035502 77 272 3.0 4.0 0.00 0.00 0.00 88 1013.8
20260508035003 77 269 3.0 4.0 0.00 0.00 0.00 87 1013.8
20260508034502 77 264 2.0 4.0 0.00 0.00 0.00 87 1013.8
20260508034023 77 269 2.0 3.0 0.00 0.00 0.00 87 1013.8
20260508033502 77 274 2.0 4.0 0.00 0.00 0.00 87 1013.9
20260508033002 77 274 2.0 4.0 0.00 0.00 0.00 87 1013.9
20260508032502 77 274 2.0 3.0 0.00 0.00 0.00 87 1013.8
20260508032002 77 274 2.0 3.0 0.00 0.00 0.00 87 1013.8
20260508031502 77 274 2.0 3.0 0.00 0.00 0.00 87 1013.7
20260508031003 77 274 2.0 3.0 0.00 0.00 0.00 87 1013.7
20260508030502 77 274 1.0 2.0 0.00 0.00 0.00 87 1013.7
20260508030024 77 274 2.0 3.0 0.00 0.00 0.00 87 1013.7
20260508025502 77 274 2.0 4.0 0.00 0.00 0.00 87 1013.7
20260508025002 77 272 2.0 4.0 0.00 0.00 0.00 87 1013.7
20260508024502 77 270 2.0 4.0 0.00 0.00 0.00 86 1013.7
20260508024002 77 269 2.0 4.0 0.00 0.00 0.00 86 1013.7
20260508023502 77 274 2.0 4.0 0.00 0.00 0.00 86 1013.7
20260508023002 77 276 2.0 4.0 0.00 0.00 0.00 86 1013.7
20260508022502 77 272 2.0 4.0 0.00 0.00 0.00 86 1013.6
20260508022003 77 272 3.0 5.0 0.00 0.00 0.00 86 1013.6
20260508021523 77 270 3.0 5.0 0.00 0.00 0.00 86 1013.6
20260508021003 77 271 3.0 5.0 0.00 0.00 0.00 86 1013.7
20260508020502 77 267 2.0 4.0 0.00 0.00 0.00 86 1013.7
20260508020002 77 255 2.0 4.0 0.00 0.00 0.00 86 1013.7
20260508015502 77 252 2.0 4.0 0.00 0.00 0.00 86 1013.6
20260508015003 77 259 2.0 3.0 0.00 0.00 0.00 85 1013.5
20260508014503 78 275 2.0 4.0 0.00 0.00 0.00 85 1013.5
20260508014002 78 283 2.0 4.0 0.00 0.00 0.00 85 1013.4
20260508013503 78 281 2.0 3.0 0.00 0.00 0.00 85 1013.4
20260508013003 78 276 2.0 3.0 0.00 0.00 0.00 85 1013.4
20260508012502 78 274 2.0 4.0 0.00 0.00 0.00 85 1013.3
20260508012003 78 274 3.0 4.0 0.00 0.00 0.00 85 1013.3
20260508011502 78 272 3.0 5.0 0.00 0.00 0.00 85 1013.3
20260508011023 78 271 3.0 5.0 0.00 0.00 0.00 85 1013.3
20260508010502 78 272 3.0 5.0 0.00 0.00 0.00 84 1013.3
20260508010003 78 270 2.0 4.0 0.00 0.00 0.00 84 1013.3
20260508005503 78 266 2.0 5.0 0.00 0.00 0.00 84 1013.2
20260508005002 78 269 3.0 5.0 0.00 0.00 0.00 84 1013.2
20260508004502 78 272 3.0 5.0 0.00 0.00 0.00 84 1013.2
20260508004002 78 272 3.0 4.0 0.00 0.00 0.00 84 1013.2
20260508003502 78 274 3.0 4.0 0.00 0.00 0.00 84 1013.2
20260508003024 78 273 3.0 4.0 0.00 0.00 0.00 83 1013.2
20260508002502 78 275 3.0 4.0 0.00 0.00 0.00 83 1013.2
20260508002023 78 278 2.0 4.0 0.00 0.00 0.00 83 1013.2
20260508001508 78 274 2.0 4.0 0.00 0.00 0.00 83 1013.2
20260508001023 79 272 2.0 5.0 0.00 0.00 0.00 82 1013.2
20260508000502 79 271 2.0 5.0 0.00 0.00 0.00 82 1013.2
20260508000002 79 270 2.0 4.0 0.00 0.00 0.00 82 1013.2
20260507235503 79 280 3.0 6.0 0.00 0.00 0.00 82 1013.2
20260507235002 79 279 4.0 6.0 0.00 0.00 0.00 81 1013.2
20260507234502 79 277 4.0 7.0 0.00 0.00 0.00 81 1013.2
20260507234023 80 275 4.0 7.0 0.00 0.00 0.00 81 1013.2
20260507233503 80 273 3.0 7.0 0.00 0.00 0.00 80 1013.3
20260507233002 80 280 3.0 6.0 0.00 0.00 0.00 80 1013.3
20260507232523 80 274 4.0 7.0 0.00 0.00 0.00 80 1013.2
20260507232002 80 273 5.0 7.0 0.00 0.00 0.00 80 1013.2
20260507231502 80 274 5.0 9.0 0.00 0.00 0.00 79 1013.2
20260507231024 81 272 5.0 9.0 0.00 0.00 0.00 79 1013.2
20260507230503 81 276 4.0 9.0 0.00 0.00 0.00 78 1013.2
20260507230002 81 270 3.0 6.0 0.00 0.00 0.00 78 1013.2
20260507225523 81 265 3.0 6.0 0.00 0.00 0.00 78 1013.1
20260507225002 81 275 2.0 6.0 0.00 0.00 0.00 79 1013.1
20260507224502 81 278 3.0 6.0 0.00 0.00 0.00 78 1013.1
20260507224002 81 282 4.0 9.0 0.00 0.00 0.00 78 1013.1
20260507223502 81 278 5.0 9.0 0.00 0.00 0.00 78 1013.1
20260507223002 81 271 5.0 7.0 0.00 0.00 0.00 78 1013.0
20260507222502 81 272 4.0 7.0 0.00 0.00 0.00 77 1013.1
20260507222002 81 276 4.0 7.0 0.00 0.00 0.00 78 1013.1
20260507221502 82 278 5.0 7.0 0.00 0.00 0.00 77 1013.0
20260507221024 82 276 4.0 7.0 0.00 0.00 0.00 77 1013.1
20260507220523 82 274 4.0 7.0 0.00 0.00 0.00 77 1013.2
20260507220002 82 278 5.0 10.0 0.00 0.00 0.00 77 1013.1
20260507215524 81 275 5.0 10.0 0.00 0.00 0.00 77 1013.0
20260507215002 81 270 5.0 9.0 0.00 0.00 0.00 76 1013.1
20260507214502 82 271 4.0 8.0 0.00 0.00 0.00 76 1013.2
20260507214002 82 271 3.0 7.0 0.00 0.00 0.00 77 1013.1
20260507213502 82 275 4.0 9.0 0.00 0.00 0.00 78 1013.1
20260507213002 81 276 6.0 10.0 0.00 0.00 0.00 78 1013.1
20260507212502 81 274 5.0 10.0 0.00 0.00 0.00 76 1013.1
20260507212002 82 277 5.0 10.0 0.00 0.00 0.00 76 1013.2
20260507211523 82 278 5.0 10.0 0.00 0.00 0.00 76 1013.2
20260507211004 82 275 4.0 10.0 0.00 0.00 0.00 74 1013.2
20260507210502 84 273 3.0 9.0 0.00 0.00 0.00 74 1013.2
20260507210003 84 268 3.0 9.0 0.00 0.00 0.00 73 1013.2
20260507205502 85 267 3.0 8.0 0.00 0.00 0.00 73 1013.2
20260507205023 84 269 4.0 11.0 0.00 0.00 0.00 74 1013.2
20260507204502 84 266 3.0 11.0 0.00 0.00 0.00 74 1013.2
20260507204002 85 261 2.0 7.0 0.00 0.00 0.00 72 1013.2
20260507203503 85 275 4.0 10.0 0.00 0.00 0.00 74 1013.2
20260507203002 82 276 5.0 10.0 0.00 0.00 0.00 76 1013.3
20260507202503 82 269 5.0 10.0 0.00 0.00 0.00 75 1013.3
20260507202003 83 268 4.0 10.0 0.00 0.00 0.00 74 1013.3
20260507201502 84 272 4.0 10.0 0.00 0.00 0.00 73 1013.3
20260507201002 84 268 4.0 10.0 0.00 0.00 0.00 75 1013.4
20260507200524 84 271 3.0 10.0 0.00 0.00 0.00 73 1013.3
20260507200023 84 264 3.0 9.0 0.00 0.00 0.00 73 1013.4
20260507195503 85 262 3.0 9.0 0.00 0.00 0.00 73 1013.5
20260507195002 84 271 5.0 10.0 0.00 0.00 0.00 75 1013.5
20260507194503 83 268 5.0 10.0 0.00 0.00 0.00 75 1013.6
20260507194002 84 269 4.0 11.0 0.00 0.00 0.00 74 1013.7
20260507193502 84 263 3.0 11.0 0.00 0.00 0.00 73 1013.7
20260507193003 84 260 3.0 10.0 0.00 0.00 0.00 74 1013.7
20260507192502 83 267 4.0 12.0 0.00 0.00 0.00 77 1013.7
20260507192023 83 268 5.0 12.0 0.00 0.00 0.00 75 1013.8
20260507191502 82 267 5.0 11.0 0.00 0.00 0.00 76 1013.8
20260507191003 83 272 5.0 11.0 0.00 0.00 0.00 74 1014.0
20260507190502 83 271 4.0 9.0 0.00 0.00 0.00 75 1014.1
20260507190004 84 242 3.0 9.0 0.00 0.00 0.00 72 1014.2
20260507185502 85 230 2.0 9.0 0.00 0.00 0.00 74 1014.3
20260507185002 85 232 2.0 7.0 0.00 0.00 0.00 73 1014.3
20260507184502 85 244 3.0 9.0 0.00 0.00 0.00 73 1014.4
20260507184002 84 267 4.0 9.0 0.00 0.00 0.00 75 1014.6
20260507183502 84 268 4.0 9.0 0.00 0.00 0.00 74 1014.7
20260507183002 85 254 3.0 9.0 0.00 0.00 0.00 73 1014.7
20260507182502 84 246 3.0 9.0 0.00 0.00 0.00 72 1014.8
20260507182023 85 261 3.0 10.0 0.00 0.00 0.00 74 1014.8
20260507181503 83 266 4.0 10.0 0.00 0.00 0.00 75 1014.8
20260507181003 84 264 3.0 8.0 0.00 0.00 0.00 75 1014.9
20260507180502 84 271 4.0 10.0 0.00 0.00 0.00 74 1015.1
20260507180023 83 266 5.0 11.0 0.00 0.00 0.00 75 1015.2
20260507175503 84 258 6.0 11.0 0.00 0.00 0.00 76 1015.2
20260507175002 83 260 5.0 11.0 0.00 0.00 0.00 74 1015.3
20260507174523 84 261 3.0 9.0 0.00 0.00 0.00 75 1015.3
20260507174002 85 272 4.0 9.0 0.00 0.00 0.00 75 1015.3
20260507173523 83 275 5.0 10.0 0.00 0.00 0.00 75 1015.3
20260507173002 82 268 4.0 10.0 0.00 0.00 0.00 76 1015.3
20260507172502 84 252 3.0 10.0 0.00 0.00 0.00 74 1015.3
20260507172003 84 258 3.0 10.0 0.00 0.00 0.00 75 1015.3
20260507171503 84 262 4.0 11.0 0.00 0.00 0.00 75 1015.3
20260507171024 85 265 4.0 11.0 0.00 0.00 0.00 75 1015.3
20260507170502 84 235 3.0 11.0 0.00 0.00 0.00 73 1015.3
20260507170002 85 207 3.0 11.0 0.00 0.00 0.00 73 1015.4
20260507165502 84 256 3.0 6.0 0.00 0.00 0.00 74 1015.4
20260507165002 84 264 3.0 9.0 0.00 0.00 0.00 75 1015.4
20260507164502 84 267 4.0 9.0 0.00 0.00 0.00 75 1015.4
20260507164002 83 263 4.0 10.0 0.00 0.00 0.00 74 1015.5
20260507163502 84 266 3.0 10.0 0.00 0.00 0.00 74 1015.5
20260507163002 83 271 3.0 10.0 0.00 0.00 0.00 74 1015.5
20260507162524 85 268 4.0 9.0 0.00 0.00 0.00 77 1015.6
20260507162002 82 262 4.0 9.0 0.00 0.00 0.00 75 1015.6
20260507161523 83 252 2.0 6.0 0.00 0.00 0.00 73 1015.7
20260507161002 83 266 2.0 6.0 0.00 0.00 0.00 74 1015.8
20260507160502 84 267 2.0 6.0 0.00 0.00 0.00 72 1015.7
20260507160003 84 257 2.0 5.0 0.00 0.00 0.00 73 1015.7
20260507155503 84 263 3.0 9.0 0.00 0.00 0.00 75 1015.8
20260507155003 83 267 3.0 9.0 0.00 0.00 0.00 75 1015.8
20260507154502 83 235 2.0 8.0 0.00 0.00 0.00 72 1015.8
20260507154002 84 199 2.0 11.0 0.00 0.00 0.00 73 1015.8
20260507153502 84 224 2.0 11.0 0.00 0.00 0.00 75 1015.8
20260507153002 83 243 3.0 10.0 0.00 0.00 0.00 75 1015.8
20260507152502 83 247 3.0 10.0 0.00 0.00 0.00 74 1015.8
20260507152003 84 268 2.0 9.0 0.00 0.00 0.00 75 1015.7
20260507151502 83 265 3.0 9.0 0.00 0.00 0.00 75 1015.7
20260507151003 84 253 2.0 9.0 0.00 0.00 0.00 73 1015.8
20260507150503 84 246 2.0 5.0 0.00 0.00 0.00 74 1015.8
20260507150002 84 217 3.0 9.0 0.00 0.00 0.00 74 1015.7
20260507145524 84 203 3.0 9.0 0.00 0.00 0.00 73 1015.6
20260507145023 84 210 3.0 10.0 0.00 0.00 0.00 75 1015.6
20260507144502 82 240 3.0 10.0 0.00 0.00 0.00 75 1015.7
20260507144002 83 255 2.0 6.0 0.00 0.00 0.00 73 1015.6
20260507143503 84 244 2.0 6.0 0.00 0.00 0.00 75 1015.7
20260507143002 82 246 2.0 6.0 0.00 0.00 0.00 75 1015.6
20260507142503 82 236 2.0 7.0 0.00 0.00 0.00 74 1015.5